Погода в Демушкином

Россия / Рязанская область     54°25′41″N   42°08′03″E
темп.,
°C
ветер,
м/с
пор.,
м/с
влажн.,
%
обл.,
%
осадки,
мм/ч
давл.,
гПа
погр.,
м
8 марта, пн
пн800:00−4з71292100 1.6 994675
03:00−7зюз6148986 1.6 997606
06:00−10зюз5128962 0.0 998303
09:00−7зюз489268 0.0 998373
12:00−4зюз61092100 0.4 999957
15:00−4з71171100 1.3 10001456
18:00−8зсз498469 0.5 1003223
21:00−11з339146 0.5 100640
9 марта, вт
вт900:00−13зсз239667 0.0 100820
03:00−15зсз239633 0.0 101025
06:00−16сз239779 0.0 101146
09:00−14ссз249586 0.1 1012208
12:00−10сз348892 0.0 1012504
15:00−9сз458696 0.1 1013754
18:00−12сз3794100 0.1 1014237
21:00−16сз4896100 0.1 1017196
10 марта, ср
ср1000:00−19сз379891 0.0 1018137
03:00−20сз489793 0.1 1020231
06:00−21сз4897100 0.1 1022229
09:00−21ссз4795100 0.1 1023323
12:00−18ссз4687100 0.0 1025596
15:00−16ссз4784100 0.0 1025713
18:00−20сз339290 0.0 102640
21:00−22сз359548 0.0 102889
11 марта, чт
чт1100:00−22зсз349577 0.0 102869
03:00−23зсз349982 0.0 102973
06:00−24сз339977 0.0 103048
09:00−20зсз359646 0.0 1030202
12:00−14зсз459066 0.0 1030321
15:00−10зсз478748 0.0 1029492
18:00−12зсз369262 0.0 1029122
21:00−15зсз339657 0.0 103142
12 марта, пт
пт1200:00−17з23970 0.0 103220
03:00−18зюз239712 0.0 103223
06:00−19юз23960 0.0 103227
09:00−16ююз35910 0.0 1032204
12:00−10ююз47830 0.0 1031420
15:00−8ююз510740 0.0 1030660
18:00−11ю4128283 0.0 1028398
21:00−12ю5148591 0.0 1027512